Вернуться в каталог

STARLINK-31388

АктивенСвязьVLEO
NORAD 59565·PAYLOAD·🇺🇸 United States

Запущен Apr 23, 2024 с Cape Canaveral Space Force Station

Loading…

Ближайшие Пролёты (ближайшие 24 часа)

TLE

СвежийSource: CelesTrak SupGP

Эпоха: Sep 14, 2026, 22:18 UTC

1 59565C 24076B   26257.92965278  .00010664  00000+0  38623-3 0  2577
2 59565  43.0045  20.5074 0001654 270.9834  27.9995 15.27574114    14

Отслеживайте STARLINK-31388 в реальном времени с AllMySat

Download on the App Store